Location: Gaast
(52.9002°N, 5.8891°E)
Time: 10:39:34
(UTC+00:00)

BREEZE-M DEB (TANK) - Pass Details

Date: 18 November 2025
Orbit: 304 x 15917 km, 49.3° (Epoch: 09 December)

Event Time Altitude Azimuth Distance (km) Brightness Sun altitude
Rises 17:30:19 0° 237° (WSW) 2,106 6.6 -16.6°
Reaches altitude 10° 17:31:43 10° 229° (SW) 1,441 5.3 -16.8°
Maximum altitude 17:34:20 42° 154° (SSE) 851 3.1 -17.2°
Enters shadow 17:36:22 27° 102° (ESE) 1,516 4.0 -17.5°
